Location: Lloyden Park
(37.4658°N, 122.2031°W)
Time: 13:06:09
(UTC+00:00)

Cosmos 1140 Rocket - Pass Details

Date: 19 May 2025
Orbit: 741 x 762 km, 74.1° (Epoch: 15 June)

Event Time Altitude Azimuth Distance (km) Brightness Sun altitude
Exits shadow 12:04:32 12° 226° (SW) 2,148 5.2 -9.7°
Maximum altitude 12:09:00 40° 293° (WNW) 1,114 4.1 -9.0°
Drops below altitude 10° 12:13:52 10° 3° (N) 2,284 6.5 -8.2°
Sets 12:16:22 0° 11° (N) 3,209 7.4 -7.7°
